Regional Weather Roundup
Issued by NWS Green Bay, WI

Home | Current Version | Previous Version | Text Only | Print | Product List | Glossary On
Versions: 1 2 3 4 5 6 7 8 9 10 11 12 13 14 15 16 17 18 19 20 21 22 23 24 25 26 27 28 29 30 31 32 33 34 35 36 37 38 39 40 41 42 43 44 45 46 47 48 49 50
315
ASUS43 KGRB 202311
RWRGRB

NORTH-CENTRAL AND NORTHEAST WISCONSIN REGIONAL WEATHER ROUNDUP
NATIONAL WEATHER SERVICE GREEN BAY WI
500 PM CST MON NOV 20 2017

WIZ005-009-010>012-018-019-210000-
NORTH CENTRAL WISCONSIN

CITY           SKY/WX    TMP DP  RH WIND       PRES   REMARKS
IRONWOOD       CLOUDY    41  29  62 S14G25    29.35F
MANITOWISH WTR PTCLDY    37  30  75 S9        29.41S
ARBOR VITAE    CLOUDY    39  30  70 S12G17    29.42F
EAGLE RIVER    CLOUDY    38  27  65 S8        29.43F
LAND O LAKES   CLOUDY    39  30  69 S6        29.42F
RHINELANDER    PTCLDY    40  29  64 S9        29.45S
PHILLIPS       CLOUDY    40  30  67 S7        29.43S
ANTIGO         CLOUDY    36  29  75 S5        29.49S
TOMAHAWK       PTCLDY    37  28  69 CALM      29.46F
MERRILL        PTCLDY    42  29  60 SW5       29.49R
$$

WIZ013-073-210000-
NORTHEAST WISCONSIN

CITY           SKY/WX    TMP DP  RH WIND       PRES   REMARKS
IRON MOUNTAIN  CLOUDY    37  27  67 S7        29.48S
MARINETTE      CLOUDY    40  33  76 S10       29.52F
OCONTO         CLOUDY    40  32  73 S3        29.53F
$$

WIZ017-030-035>037-045-210000-
CENTRAL WISCONSIN

CITY           SKY/WX    TMP DP  RH WIND       PRES   REMARKS
MEDFORD        CLOUDY    41  29  63 S10       29.46F
WAUSAU         CLOUDY    44  29  55 S12       29.48S
MOSINEE        CLOUDY    43  30  61 S15       29.50F
MARSHFIELD     CLOUDY    43  28  55 SW9       29.49S
WISC RAPIDS    CLOUDY    46  31  55 SW12      29.53F
STEVENS POINT  CLOUDY    43  29  57 SW7       29.52S
WAUPACA        CLOUDY    45  31  59 S6        29.53F
SHAWANO        CLOUDY    44  32  61 S5        29.51F
CLINTONVILLE   CLOUDY    43  30  61 S8        29.52F
WAUTOMA        CLOUDY    47  30  51 S6        29.55S
$$

WIZ038-039-048-051-210000-
FOX VALLEY

CITY           SKY/WX    TMP DP  RH WIND       PRES   REMARKS
NWS GREEN BAY  CLOUDY    45  33  63 S9        29.54F
APPLETON       MOCLDY    43  28  56 SW12      29.54F
OSHKOSH        CLOUDY    45  33  63 S13       29.55F
FOND DU LAC    CLOUDY    47  31  53 S16       29.57S
$$

WIZ022-050-052-210000-
EAST CENTRAL WISCONSIN

CITY           SKY/WX    TMP DP  RH WIND       PRES   REMARKS
EPHRAIM        FAIR      41  34  75 S13G21    29.53F
WASHINGTON ISL FAIR      42  36  77 S15G29    29.53F
STURGEON BAY   CLOUDY    42  35  76 S14G24    29.54F
MANITOWOC      CLOUDY    42  34  73 S8        29.57F
SHEBOYGAN      CLOUDY    45  33  63 S12       29.58F
$$

LMZ563-521-522-541>543-210000-
LAKESHORE

STATION/POSITION TIME  TEMP    WIND        PRES    VSBY  WAVE
                       AIR SEA DIR/SP/G                  HT/PER
                 (UTC) (F)     (DEG/KT/KT) (MB)    (MI)  (FT/S)
SHEBOYGAN LKSHOR 2300   44     180/ 15/ 16 1001.9F
KEWAUNEE LKSHORE 2242   42     190/ 14/ 18   N/A
NORTHPORT PIER   2240   44     160/ 11/ 19 1001.0R
N MID LAKE BUOY  2250   46 48  190/ 27/ 35 1001.0F         9/ 7
MENOMINEE LKSHOR 2242   42     170/ 12/ 18 1000.0F
$$




USA.gov is the U.S. government's official web portal to all federal, state and local government web resources and services.